Change the Weather History Date:

Monday, March 18, 2013

  Actual Average (KADM) Record (KADM)
Temperature  
Mean Temperature 53 °F -  
Max Temperature 64 °F 62 °F 86 °F (2009)
Min Temperature 42 °F 44 °F 41 °F (2013)
Degree Days  
Heating Degree Days 12    
Growing Degree Days 3 (Base 50)    
Moisture  
Dew Point 41 °F    
Average Humidity 69    
Maximum Humidity 100    
Minimum Humidity 37    
Precipitation  
Precipitation 0.00 in - - ()
Sea Level Pressure  
Sea Level Pressure 29.86 in    
Wind  
Wind Speed 9 mph (NNE)    
Max Wind Speed 21 mph    
Max Gust Speed 25 mph    
Visibility 9 miles    
Events      
Averages and records for this station are not official NWS values.
T = Trace of Precipitation, MM = Missing Value Source: NWS Daily Summary

Daily Weather History Graph

Daily Weather History Graph

Search for Another Location

Airport or City:

Trip Planner

Search our weather history database for the weather conditions in past years. The results will help you decide how hot, cold, wet, or windy it might be!

Date:

Astronomy

Mar. 18, 2013 Rise Set
Actual Time 7:31 AM CDT 7:35 PM CDT
Civil Twilight 7:06 AM CDT 8:00 PM CDT
Nautical Twilight 6:37 AM CDT 8:29 PM CDT
Astronomical Twilight 6:08 AM CDT 8:59 PM CDT
Moon 11:47 AM CDT (3/18) 1:21 AM CDT (3/18)
Length of Visible Light 12h 54m
Length of Day
12h 04m
Waxing Crescent, 41% of the Moon is Illuminated
Mar 18
Waxing Crescent
Mar 19
First Quarter
Mar 27
Full
Apr 2
Last Quarter
Apr 10
New

Hourly Weather History & Observations

Time (CDT) Temp. Windchill Dew Point Humidity Pressure Visibility Wind Dir Wind Speed Gust Speed Precip Events Conditions
12:15 AM 46.4 °F 44.3 °F 41.0 °F 81% 29.70 in 7.0 mi ESE 4.6 mph - N/A   Clear
12:35 AM 46.4 °F 41.9 °F 42.8 °F 87% 29.67 in 7.0 mi SE 9.2 mph - N/A   Clear
12:55 AM 46.4 °F 42.9 °F 44.6 °F 93% 29.67 in 7.0 mi SSE 6.9 mph - N/A   Clear
1:15 AM 46.4 °F 45.2 °F 44.6 °F 93% 29.67 in 7.0 mi SSE 3.5 mph - N/A   Clear
1:35 AM 46.4 °F 45.2 °F 42.8 °F 87% 29.66 in 7.0 mi SE 3.5 mph - N/A   Clear
1:55 AM 46.4 °F - 44.6 °F 93% 29.67 in 7.0 mi Calm Calm - N/A   Clear
2:15 AM 46.4 °F - 44.6 °F 93% 29.67 in 7.0 mi Calm Calm - N/A   Clear
2:35 AM 46.4 °F 44.3 °F 44.6 °F 93% 29.68 in 7.0 mi NE 4.6 mph - N/A   Clear
2:55 AM 46.4 °F 42.9 °F 44.6 °F 93% 29.68 in 7.0 mi NE 6.9 mph - N/A   Clear
3:15 AM 44.6 °F 42.2 °F 42.8 °F 93% 29.68 in 7.0 mi NE 4.6 mph - N/A   Clear
3:35 AM 44.6 °F 43.1 °F 42.8 °F 93% 29.67 in 7.0 mi East 3.5 mph - N/A   Clear
3:55 AM 44.6 °F 43.1 °F 42.8 °F 93% 29.66 in 7.0 mi East 3.5 mph - N/A   Clear
4:15 AM 44.6 °F - 42.8 °F 93% 29.66 in 7.0 mi Calm Calm - N/A   Clear
4:35 AM 42.8 °F - 42.8 °F 100% 29.67 in 7.0 mi Calm Calm - N/A   Clear
4:55 AM 44.6 °F 43.1 °F 42.8 °F 93% 29.67 in 7.0 mi NE 3.5 mph - N/A   Clear
5:15 AM 44.6 °F 41.4 °F 42.8 °F 93% 29.67 in 7.0 mi NE 5.8 mph - N/A   Clear
5:35 AM 44.6 °F 38.1 °F 42.8 °F 93% 29.70 in 7.0 mi North 13.8 mph 18.4 mph N/A   Clear
5:55 AM 44.6 °F 37.2 °F 42.8 °F 93% 29.70 in 5.0 mi NNE 17.3 mph 23.0 mph N/A   Clear
6:15 AM 44.6 °F 37.8 °F 42.8 °F 93% 29.72 in 7.0 mi North 15.0 mph - N/A   Clear
6:35 AM 44.6 °F 37.2 °F 42.8 °F 93% 29.77 in 7.0 mi NW 17.3 mph 20.7 mph N/A   Scattered Clouds
6:55 AM 44.6 °F 37.8 °F 42.8 °F 93% 29.73 in 7.0 mi NE 15.0 mph 21.9 mph N/A   Mostly Cloudy
7:15 AM 46.4 °F 40.7 °F 42.8 °F 87% 29.78 in 7.0 mi NNE 12.7 mph 19.6 mph N/A   Mostly Cloudy
7:35 AM 46.4 °F 39.0 °F 42.8 °F 87% 29.80 in 7.0 mi NW 19.6 mph 23.0 mph N/A   Overcast
7:55 AM 46.4 °F 39.8 °F 42.8 °F 87% 29.81 in 7.0 mi NNW 16.1 mph 19.6 mph N/A   Overcast
8:15 AM 46.4 °F 41.1 °F 42.8 °F 87% 29.82 in 7.0 mi NNE 11.5 mph - N/A   Overcast
8:35 AM 48.2 °F - 42.8 °F 82% 29.83 in 7.0 mi NE 12.7 mph - N/A   Overcast
8:55 AM 48.2 °F - 44.6 °F 87% 29.84 in 7.0 mi North 11.5 mph - N/A   Scattered Clouds
9:15 AM 50.0 °F - 44.6 °F 82% 29.85 in 7.0 mi NNE 11.5 mph - N/A   Clear
9:35 AM 50.0 °F - 44.6 °F 82% 29.86 in 10.0 mi NNE 15.0 mph - N/A   Clear
9:55 AM 51.8 °F - 44.6 °F 76% 29.87 in 10.0 mi NNW 11.5 mph - N/A   Clear
10:15 AM 51.8 °F - 44.6 °F 76% 29.89 in 10.0 mi NNW 16.1 mph - N/A   Scattered Clouds
10:35 AM 51.8 °F - 42.8 °F 71% 29.90 in 10.0 mi North 17.3 mph 21.9 mph N/A   Scattered Clouds
10:55 AM 51.8 °F - 42.8 °F 71% 29.91 in 10.0 mi North 19.6 mph 25.3 mph N/A   Scattered Clouds
11:15 AM 51.8 °F - 44.6 °F 76% 29.93 in 10.0 mi NW 16.1 mph 21.9 mph N/A   Mostly Cloudy
11:35 AM 53.6 °F - 42.8 °F 67% 29.92 in 10.0 mi North 17.3 mph 25.3 mph N/A   Scattered Clouds
11:55 AM 53.6 °F - 42.8 °F 67% 29.93 in 10.0 mi NNW 17.3 mph - N/A   Clear
12:15 PM 55.4 °F - 44.6 °F 67% 29.92 in 10.0 mi NNW 15.0 mph 21.9 mph N/A   Clear
12:35 PM 57.2 °F - 42.8 °F 59% 29.92 in 10.0 mi North 20.7 mph - N/A   Clear
12:55 PM 59.0 °F - 42.8 °F 55% 29.92 in 10.0 mi NNW 13.8 mph - N/A   Clear
1:15 PM 60.8 °F - 44.6 °F 55% 29.92 in 10.0 mi NNW 15.0 mph 18.4 mph N/A   Clear
1:35 PM 60.8 °F - 42.8 °F 52% 29.92 in 10.0 mi NNE 15.0 mph - N/A   Clear
1:55 PM 62.6 °F - 42.8 °F 48% 29.92 in 10.0 mi North 15.0 mph 21.9 mph N/A   Clear
2:15 PM 62.6 °F - 42.8 °F 48% 29.91 in 10.0 mi North 16.1 mph 21.9 mph N/A   Clear
2:35 PM 62.6 °F - 42.8 °F 48% 29.90 in 10.0 mi NNE 13.8 mph 19.6 mph N/A   Clear
2:55 PM 64.4 °F - 42.8 °F 45% 29.89 in 10.0 mi NNE 17.3 mph - N/A   Clear
3:15 PM 64.4 °F - 42.8 °F 45% 29.89 in 10.0 mi NNE 13.8 mph 19.6 mph N/A   Clear
3:35 PM 64.4 °F - 41.0 °F 42% 29.90 in 10.0 mi North 13.8 mph - N/A   Clear
3:55 PM 64.4 °F - 41.0 °F 42% 29.90 in 10.0 mi NNW 17.3 mph 21.9 mph N/A   Clear
4:15 PM 64.4 °F - 41.0 °F 42% 29.91 in 10.0 mi NNW 18.4 mph 25.3 mph N/A   Clear
4:35 PM 64.4 °F - 41.0 °F 42% 29.92 in 10.0 mi North 11.5 mph 23.0 mph N/A   Clear
4:55 PM 64.4 °F - 39.2 °F 40% 29.92 in 10.0 mi North 17.3 mph 23.0 mph N/A   Clear
5:15 PM 64.4 °F - 37.4 °F 37% 29.93 in 10.0 mi North 16.1 mph 20.7 mph N/A   Clear
5:35 PM 64.4 °F - 37.4 °F 37% 29.93 in 10.0 mi NNE 11.5 mph 18.4 mph N/A   Clear
5:55 PM 62.6 °F - 35.6 °F 37% 29.93 in 10.0 mi NNE 12.7 mph - N/A   Clear
6:15 PM 62.6 °F - 35.6 °F 37% 29.94 in 10.0 mi NNE 9.2 mph - N/A   Clear
6:35 PM 62.6 °F - 35.6 °F 37% 29.95 in 10.0 mi NNE 12.7 mph - N/A   Clear
6:55 PM 62.6 °F - 37.4 °F 39% 29.95 in 10.0 mi NNE 9.2 mph - N/A   Clear
7:15 PM 60.8 °F - 37.4 °F 42% 29.95 in 10.0 mi NNE 6.9 mph - N/A   Clear
7:35 PM 59.0 °F - 37.4 °F 45% 29.98 in 10.0 mi NW 5.8 mph - N/A   Clear
7:55 PM 55.4 °F - 37.4 °F 51% 30.00 in 10.0 mi NNW 5.8 mph - N/A   Clear
8:15 PM 55.4 °F - 37.4 °F 51% 30.00 in 10.0 mi WSW 4.6 mph - N/A   Clear
8:35 PM 53.6 °F - 37.4 °F 54% 30.01 in 10.0 mi NNE 4.6 mph - N/A   Clear
8:55 PM 51.8 °F - 37.4 °F 58% 30.02 in 10.0 mi ENE 5.8 mph - N/A   Clear
9:15 PM 50.0 °F - 37.4 °F 62% 30.02 in 10.0 mi East 6.9 mph - N/A   Clear
9:35 PM 50.0 °F - 37.4 °F 62% 30.02 in 10.0 mi East 8.1 mph - N/A   Clear
9:55 PM 48.2 °F - 37.4 °F 66% 30.02 in 10.0 mi East 8.1 mph - N/A   Clear
10:15 PM 48.2 °F - 37.4 °F 66% 30.02 in 10.0 mi East 8.1 mph - N/A   Clear
10:35 PM 46.4 °F 42.9 °F 37.4 °F 71% 30.02 in 10.0 mi East 6.9 mph - N/A   Clear
10:55 PM 46.4 °F 43.5 °F 37.4 °F 71% 30.03 in 10.0 mi East 5.8 mph - N/A   Clear
11:15 PM 44.6 °F 41.4 °F 37.4 °F 76% 30.03 in 10.0 mi East 5.8 mph - N/A   Clear
11:35 PM 44.6 °F 41.4 °F 37.4 °F 76% 30.04 in 10.0 mi East 5.8 mph - N/A   Clear
11:55 PM 44.6 °F 41.4 °F 35.6 °F 71% 30.04 in 10.0 mi East 5.8 mph - N/A   Clear